Year,Month,Day,Hour,Minute,Value (Times are PST for temperature in C)
2009,05,23,00,00,9.10
2009,05,23,00,01,9.10
2009,05,23,00,02,9.10
2009,05,23,00,03,9.10
2009,05,23,00,04,9.00
2009,05,23,00,05,9.00
2009,05,23,00,06,8.90
2009,05,23,00,07,8.90
2009,05,23,00,08,8.90
2009,05,23,00,09,8.90
2009,05,23,00,10,8.90
2009,05,23,00,11,8.90
2009,05,23,00,12,8.90
2009,05,23,00,13,8.90
2009,05,23,00,14,8.80
2009,05,23,00,15,8.80
2009,05,23,00,16,8.80
2009,05,23,00,17,8.70
2009,05,23,00,18,8.70
2009,05,23,00,19,8.60
2009,05,23,00,20,8.60
2009,05,23,00,21,8.60
2009,05,23,00,22,8.60
2009,05,23,00,23,8.60
2009,05,23,00,24,8.50
2009,05,23,00,25,8.50
2009,05,23,00,26,8.60
2009,05,23,00,27,8.60
2009,05,23,00,28,8.50
2009,05,23,00,29,8.50
2009,05,23,00,30,8.50
2009,05,23,00,31,8.50
2009,05,23,00,32,8.40
2009,05,23,00,33,8.40
2009,05,23,00,34,8.40
2009,05,23,00,35,8.40
2009,05,23,00,36,8.40
2009,05,23,00,37,8.30
2009,05,23,00,38,8.30
2009,05,23,00,39,8.30
2009,05,23,00,40,8.30
2009,05,23,00,41,8.30
2009,05,23,00,42,8.30
2009,05,23,00,43,8.30
2009,05,23,00,44,8.30
2009,05,23,00,45,8.30
2009,05,23,00,46,8.30
2009,05,23,00,47,8.30
2009,05,23,00,48,8.30
2009,05,23,00,49,8.30
2009,05,23,00,50,8.20
2009,05,23,00,51,8.20
2009,05,23,00,52,8.10
2009,05,23,00,53,8.10
2009,05,23,00,54,8.00
2009,05,23,00,55,8.00
2009,05,23,00,56,7.90
2009,05,23,00,57,7.90
2009,05,23,00,58,7.90
2009,05,23,00,59,7.90
2009,05,23,01,00,7.90
2009,05,23,01,01,7.90
2009,05,23,01,02,8.00
2009,05,23,01,03,8.00
2009,05,23,01,04,8.00
2009,05,23,01,05,8.00
2009,05,23,01,06,8.00
2009,05,23,01,07,7.90
2009,05,23,01,08,7.90
2009,05,23,01,09,7.90
2009,05,23,01,10,7.90
2009,05,23,01,11,7.90
2009,05,23,01,12,7.90
2009,05,23,01,13,7.90
2009,05,23,01,14,7.90
2009,05,23,01,15,7.80
2009,05,23,01,16,7.80
2009,05,23,01,17,7.80
2009,05,23,01,18,7.80
2009,05,23,01,19,7.80
2009,05,23,01,20,7.80
2009,05,23,01,21,7.70
2009,05,23,01,22,7.70
2009,05,23,01,23,7.70
2009,05,23,01,24,7.70
2009,05,23,01,25,7.70
2009,05,23,01,26,7.70
2009,05,23,01,27,7.70
2009,05,23,01,28,7.70
2009,05,23,01,29,7.70
2009,05,23,01,30,7.70
2009,05,23,01,31,7.70
2009,05,23,01,32,7.60
2009,05,23,01,33,7.60
2009,05,23,01,34,7.60
2009,05,23,01,35,7.60
2009,05,23,01,36,7.60
2009,05,23,01,37,7.60
2009,05,23,01,38,7.60
2009,05,23,01,39,7.60
2009,05,23,01,40,7.60
2009,05,23,01,41,7.60
2009,05,23,01,42,7.60
2009,05,23,01,43,7.60
2009,05,23,01,44,7.60
2009,05,23,01,45,7.60
2009,05,23,01,46,7.60
2009,05,23,01,47,7.60
2009,05,23,01,48,7.50
2009,05,23,01,49,7.50
2009,05,23,01,50,7.50
2009,05,23,01,51,7.40
2009,05,23,01,52,7.40
2009,05,23,01,53,7.40
2009,05,23,01,54,7.40
2009,05,23,01,55,7.40
2009,05,23,01,56,7.30
2009,05,23,01,57,7.30
2009,05,23,01,58,7.30
2009,05,23,01,59,7.20
2009,05,23,02,00,7.20
2009,05,23,02,01,7.20
2009,05,23,02,02,7.20
2009,05,23,02,03,7.20
2009,05,23,02,04,7.10
2009,05,23,02,05,7.10
2009,05,23,02,06,7.10
2009,05,23,02,07,7.00
2009,05,23,02,08,7.00
2009,05,23,02,09,7.00
2009,05,23,02,10,6.90
2009,05,23,02,11,6.90
2009,05,23,02,12,6.90
2009,05,23,02,13,6.90
2009,05,23,02,14,6.90
2009,05,23,02,15,6.90
2009,05,23,02,16,6.90
2009,05,23,02,17,6.90
2009,05,23,02,18,6.90
2009,05,23,02,19,6.90
2009,05,23,02,20,6.90
2009,05,23,02,21,6.90
2009,05,23,02,22,6.90
2009,05,23,02,23,6.90
2009,05,23,02,24,6.90
2009,05,23,02,25,6.90
2009,05,23,02,26,6.90
2009,05,23,02,27,6.90
2009,05,23,02,28,6.90
2009,05,23,02,29,6.90
2009,05,23,02,30,6.90
2009,05,23,02,31,6.80
2009,05,23,02,32,6.80
2009,05,23,02,33,6.80
2009,05,23,02,34,6.80
2009,05,23,02,35,6.70
2009,05,23,02,36,6.70
2009,05,23,02,37,6.70
2009,05,23,02,38,6.70
2009,05,23,02,39,6.70
2009,05,23,02,40,6.70
2009,05,23,02,41,6.70
2009,05,23,02,42,6.70
2009,05,23,02,43,6.70
2009,05,23,02,44,6.70
2009,05,23,02,45,6.70
2009,05,23,02,46,6.70
2009,05,23,02,47,6.60
2009,05,23,02,48,6.60
2009,05,23,02,49,6.60
2009,05,23,02,50,6.60
2009,05,23,02,51,6.60
2009,05,23,02,52,6.60
2009,05,23,02,53,6.60
2009,05,23,02,54,6.60
2009,05,23,02,55,6.60
2009,05,23,02,56,6.50
2009,05,23,02,57,6.50
2009,05,23,02,58,6.50
2009,05,23,02,59,6.50
2009,05,23,03,00,6.50
2009,05,23,03,01,6.50
2009,05,23,03,02,6.50
2009,05,23,03,03,6.50
2009,05,23,03,04,6.50
2009,05,23,03,05,6.50
2009,05,23,03,06,6.50
2009,05,23,03,07,6.50
2009,05,23,03,08,6.50
2009,05,23,03,09,6.50
2009,05,23,03,10,6.40
2009,05,23,03,11,6.40
2009,05,23,03,12,6.40
2009,05,23,03,13,6.40
2009,05,23,03,14,6.40
2009,05,23,03,15,6.40
2009,05,23,03,16,6.40
2009,05,23,03,17,6.40
2009,05,23,03,18,6.40
2009,05,23,03,19,6.30
2009,05,23,03,20,6.30
2009,05,23,03,21,6.30
2009,05,23,03,22,6.30
2009,05,23,03,23,6.30
2009,05,23,03,24,6.30
2009,05,23,03,25,6.30
2009,05,23,03,26,6.30
2009,05,23,03,27,6.30
2009,05,23,03,28,6.20
2009,05,23,03,29,6.20
2009,05,23,03,30,6.20
2009,05,23,03,31,6.20
2009,05,23,03,32,6.20
2009,05,23,03,33,6.20
2009,05,23,03,34,6.20
2009,05,23,03,35,6.20
2009,05,23,03,36,6.20
2009,05,23,03,37,6.20
2009,05,23,03,38,6.20
2009,05,23,03,39,6.20
2009,05,23,03,40,6.20
2009,05,23,03,41,6.20
2009,05,23,03,42,6.20
2009,05,23,03,43,6.20
2009,05,23,03,44,6.20
2009,05,23,03,45,6.20
2009,05,23,03,46,6.20
2009,05,23,03,47,6.20
2009,05,23,03,48,6.10
2009,05,23,03,49,6.10
2009,05,23,03,50,6.10
2009,05,23,03,51,6.10
2009,05,23,03,52,6.10
2009,05,23,03,53,6.10
2009,05,23,03,54,6.10
2009,05,23,03,55,6.10
2009,05,23,03,56,6.00
2009,05,23,03,57,6.00
2009,05,23,03,58,6.00
2009,05,23,03,59,5.90
2009,05,23,04,00,5.90
2009,05,23,04,01,5.90
2009,05,23,04,02,5.90
2009,05,23,04,03,5.90
2009,05,23,04,04,5.90
2009,05,23,04,05,5.80
2009,05,23,04,06,5.80
2009,05,23,04,07,5.80
2009,05,23,04,08,5.80
2009,05,23,04,09,5.80
2009,05,23,04,10,5.80
2009,05,23,04,11,5.80
2009,05,23,04,12,5.80
2009,05,23,04,13,5.80
2009,05,23,04,14,5.70
2009,05,23,04,15,5.70
2009,05,23,04,16,5.70
2009,05,23,04,17,5.70
2009,05,23,04,18,5.70
2009,05,23,04,19,5.70
2009,05,23,04,20,5.70
2009,05,23,04,21,5.70
2009,05,23,04,22,5.70
2009,05,23,04,23,5.70
2009,05,23,04,24,5.80
2009,05,23,04,25,5.80
2009,05,23,04,26,5.80
2009,05,23,04,27,5.80
2009,05,23,04,28,5.80
2009,05,23,04,29,5.80
2009,05,23,04,30,5.80
2009,05,23,04,31,5.80
2009,05,23,04,32,5.80
2009,05,23,04,33,5.80
2009,05,23,04,34,5.80
2009,05,23,04,35,5.80
2009,05,23,04,36,5.80
2009,05,23,04,37,5.80
2009,05,23,04,38,5.80
2009,05,23,04,39,5.80
2009,05,23,04,40,5.80
2009,05,23,04,41,5.80
2009,05,23,04,42,5.70
2009,05,23,04,43,5.70
2009,05,23,04,44,5.70
2009,05,23,04,45,5.70
2009,05,23,04,46,5.70
2009,05,23,04,47,5.60
2009,05,23,04,48,5.60
2009,05,23,04,49,5.60
2009,05,23,04,50,5.60
2009,05,23,04,51,5.60
2009,05,23,04,52,5.50
2009,05,23,04,53,5.50
2009,05,23,04,54,5.50
2009,05,23,04,55,5.50
2009,05,23,04,56,5.40
2009,05,23,04,57,5.40
2009,05,23,04,58,5.40
2009,05,23,04,59,5.40
2009,05,23,05,00,5.40
2009,05,23,05,01,5.40
2009,05,23,05,02,5.40
2009,05,23,05,03,5.40
2009,05,23,05,04,5.40
2009,05,23,05,05,5.40
2009,05,23,05,06,5.40
2009,05,23,05,07,5.40
2009,05,23,05,08,5.50
2009,05,23,05,09,5.40
2009,05,23,05,10,5.50
2009,05,23,05,11,5.40
2009,05,23,05,12,5.40
2009,05,23,05,13,5.40
2009,05,23,05,14,5.40
2009,05,23,05,15,5.40
2009,05,23,05,16,5.30
2009,05,23,05,17,5.30
2009,05,23,05,18,5.30
2009,05,23,05,19,5.30
2009,05,23,05,20,5.30
2009,05,23,05,21,5.30
2009,05,23,05,22,5.30
2009,05,23,05,23,5.30
2009,05,23,05,24,5.30
2009,05,23,05,25,5.30
2009,05,23,05,26,5.30
2009,05,23,05,27,5.30
2009,05,23,05,28,5.30
2009,05,23,05,29,5.30
2009,05,23,05,30,5.30
2009,05,23,05,31,5.30
2009,05,23,05,32,5.30
2009,05,23,05,33,5.30
2009,05,23,05,34,5.30
2009,05,23,05,35,5.30
2009,05,23,05,36,5.30
2009,05,23,05,37,5.30
2009,05,23,05,38,5.20
2009,05,23,05,39,5.20
2009,05,23,05,40,5.20
2009,05,23,05,41,5.20
2009,05,23,05,42,5.20
2009,05,23,05,43,5.20
2009,05,23,05,44,5.20
2009,05,23,05,45,5.20
2009,05,23,05,46,5.20
2009,05,23,05,47,5.20
2009,05,23,05,48,5.20
2009,05,23,05,49,5.20
2009,05,23,05,50,5.20
2009,05,23,05,51,5.20
2009,05,23,05,52,5.20
2009,05,23,05,53,5.20
2009,05,23,05,54,5.20
2009,05,23,05,55,5.20
2009,05,23,05,56,5.20
2009,05,23,05,57,5.20
2009,05,23,05,58,5.20
2009,05,23,05,59,5.20
2009,05,23,06,00,5.20
2009,05,23,06,01,5.20
2009,05,23,06,02,5.20
2009,05,23,06,03,5.20
2009,05,23,06,04,5.20
2009,05,23,06,05,5.20
2009,05,23,06,06,5.20
2009,05,23,06,07,5.20
2009,05,23,06,08,5.20
2009,05,23,06,09,5.20
2009,05,23,06,10,5.30
2009,05,23,06,11,5.30
2009,05,23,06,12,5.30
2009,05,23,06,13,5.40
2009,05,23,06,14,5.40
2009,05,23,06,15,5.50
2009,05,23,06,16,5.50
2009,05,23,06,17,5.50
2009,05,23,06,18,5.60
2009,05,23,06,19,5.70
2009,05,23,06,20,5.70
2009,05,23,06,21,5.70
2009,05,23,06,22,5.80
2009,05,23,06,23,5.80
2009,05,23,06,24,5.90
2009,05,23,06,25,5.90
2009,05,23,06,26,6.00
2009,05,23,06,27,6.00
2009,05,23,06,28,6.00
2009,05,23,06,29,6.10
2009,05,23,06,30,6.10
2009,05,23,06,31,6.10
2009,05,23,06,32,6.10
2009,05,23,06,33,6.10
2009,05,23,06,34,6.10
2009,05,23,06,35,6.20
2009,05,23,06,36,6.20
2009,05,23,06,37,6.20
2009,05,23,06,38,6.20
2009,05,23,06,39,6.20
2009,05,23,06,40,6.30
2009,05,23,06,41,6.30
2009,05,23,06,42,6.30
2009,05,23,06,43,6.40
2009,05,23,06,44,6.40
2009,05,23,06,45,6.50
2009,05,23,06,46,6.50
2009,05,23,06,47,6.60
2009,05,23,06,48,6.60
2009,05,23,06,49,6.70
2009,05,23,06,50,6.70
2009,05,23,06,51,6.80
2009,05,23,06,52,6.80
2009,05,23,06,53,6.90
2009,05,23,06,54,6.90
2009,05,23,06,55,7.00
2009,05,23,06,56,7.10
2009,05,23,06,57,7.20
2009,05,23,06,58,7.20
2009,05,23,06,59,7.30
2009,05,23,07,00,7.40
2009,05,23,07,01,7.40
2009,05,23,07,02,7.50
2009,05,23,07,03,7.60
2009,05,23,07,04,7.70
2009,05,23,07,05,7.70
2009,05,23,07,06,7.80
2009,05,23,07,07,7.90
2009,05,23,07,08,8.00
2009,05,23,07,09,8.10
2009,05,23,07,10,8.20
2009,05,23,07,11,8.30
2009,05,23,07,12,8.30
2009,05,23,07,13,8.40
2009,05,23,07,14,8.50
2009,05,23,07,15,8.50
2009,05,23,07,16,8.60
2009,05,23,07,17,8.60
2009,05,23,07,18,8.70
2009,05,23,07,19,8.70
2009,05,23,07,20,8.80
2009,05,23,07,21,8.80
2009,05,23,07,22,8.90
2009,05,23,07,23,9.00
2009,05,23,07,24,9.00
2009,05,23,07,25,9.10
2009,05,23,07,26,9.20
2009,05,23,07,27,9.20
2009,05,23,07,28,9.30
2009,05,23,07,29,9.40
2009,05,23,07,30,9.50
2009,05,23,07,31,9.50
2009,05,23,07,32,9.60
2009,05,23,07,33,9.60
2009,05,23,07,34,9.70
2009,05,23,07,35,9.80
2009,05,23,07,36,9.80
2009,05,23,07,37,9.90
2009,05,23,07,38,10.00
2009,05,23,07,39,10.00
2009,05,23,07,40,10.00
2009,05,23,07,41,10.10
2009,05,23,07,42,10.10
2009,05,23,07,43,10.10
2009,05,23,07,44,10.20
2009,05,23,07,45,10.20
2009,05,23,07,46,10.20
2009,05,23,07,47,10.20
2009,05,23,07,48,10.30
2009,05,23,07,49,10.30
2009,05,23,07,50,10.30
2009,05,23,07,51,10.40
2009,05,23,07,52,10.40
2009,05,23,07,53,10.50
2009,05,23,07,54,10.50
2009,05,23,07,55,10.60
2009,05,23,07,56,10.70
2009,05,23,07,57,10.90
2009,05,23,07,58,11.00
2009,05,23,07,59,11.10
2009,05,23,08,00,11.20
2009,05,23,08,01,11.30
2009,05,23,08,02,11.40
2009,05,23,08,03,11.50
2009,05,23,08,04,11.50
2009,05,23,08,05,11.60
2009,05,23,08,06,11.60
2009,05,23,08,07,11.70
2009,05,23,08,08,11.80
2009,05,23,08,09,11.80
2009,05,23,08,10,11.90
2009,05,23,08,11,11.90
2009,05,23,08,12,12.00
2009,05,23,08,13,12.10
2009,05,23,08,14,12.10
2009,05,23,08,15,12.20
2009,05,23,08,16,12.30
2009,05,23,08,17,12.40
2009,05,23,08,18,12.40
2009,05,23,08,19,12.50
2009,05,23,08,20,12.60
2009,05,23,08,21,12.70
2009,05,23,08,22,12.80
2009,05,23,08,23,12.90
2009,05,23,08,24,13.00
2009,05,23,08,25,13.10
2009,05,23,08,26,13.10
2009,05,23,08,27,13.20
2009,05,23,08,28,13.20
2009,05,23,08,29,13.30
2009,05,23,08,30,13.40
2009,05,23,08,31,13.50
2009,05,23,08,32,13.50
2009,05,23,08,33,13.60
2009,05,23,08,34,13.60
2009,05,23,08,35,13.60
2009,05,23,08,36,13.60
2009,05,23,08,37,13.60
2009,05,23,08,38,13.60
2009,05,23,08,39,13.60
2009,05,23,08,40,13.60
2009,05,23,08,41,13.70
2009,05,23,08,42,13.70
2009,05,23,08,43,13.70
2009,05,23,08,44,13.80
2009,05,23,08,45,13.80
2009,05,23,08,46,13.70
2009,05,23,08,47,13.70
2009,05,23,08,48,13.70
2009,05,23,08,49,13.80
2009,05,23,08,50,13.80
2009,05,23,08,51,13.80
2009,05,23,08,52,13.90
2009,05,23,08,53,13.90
2009,05,23,08,54,14.00
2009,05,23,08,55,14.10
2009,05,23,08,56,14.20
2009,05,23,08,57,14.30
2009,05,23,08,58,14.40
2009,05,23,08,59,14.50
2009,05,23,09,00,14.60
2009,05,23,09,01,14.70
2009,05,23,09,02,14.70
2009,05,23,09,03,14.80
2009,05,23,09,04,15.00
2009,05,23,09,05,15.00
2009,05,23,09,06,15.00
2009,05,23,09,07,14.80
2009,05,23,09,08,14.60
2009,05,23,09,09,14.40
2009,05,23,09,10,14.30
2009,05,23,09,11,14.30
2009,05,23,09,12,14.30
2009,05,23,09,13,14.40
2009,05,23,09,14,14.40
2009,05,23,09,15,14.50
2009,05,23,09,16,14.60
2009,05,23,09,17,14.70
2009,05,23,09,18,14.80
2009,05,23,09,19,15.00
2009,05,23,09,20,15.00
2009,05,23,09,21,15.00
2009,05,23,09,22,15.00
2009,05,23,09,23,14.90
2009,05,23,09,24,15.00
2009,05,23,09,25,15.00
2009,05,23,09,26,15.00
2009,05,23,09,27,15.00
2009,05,23,09,28,15.20
2009,05,23,09,29,15.30
2009,05,23,09,30,15.20
2009,05,23,09,31,15.20
2009,05,23,09,32,15.20
2009,05,23,09,33,15.30
2009,05,23,09,34,15.30
2009,05,23,09,35,15.40
2009,05,23,09,36,15.40
2009,05,23,09,37,15.50
2009,05,23,09,38,15.60
2009,05,23,09,39,15.50
2009,05,23,09,40,15.50
2009,05,23,09,41,15.40
2009,05,23,09,42,15.40
2009,05,23,09,43,15.30
2009,05,23,09,44,15.30
2009,05,23,09,45,15.30
2009,05,23,09,46,15.40
2009,05,23,09,47,15.50
2009,05,23,09,48,15.60
2009,05,23,09,49,15.70
2009,05,23,09,50,15.80
2009,05,23,09,51,15.80
2009,05,23,09,52,15.80
2009,05,23,09,53,15.80
2009,05,23,09,54,15.80
2009,05,23,09,55,15.90
2009,05,23,09,56,15.90
2009,05,23,09,57,15.80
2009,05,23,09,58,15.70
2009,05,23,09,59,15.60
2009,05,23,10,00,15.60
2009,05,23,10,01,15.50
2009,05,23,10,02,15.50
2009,05,23,10,03,15.60
2009,05,23,10,04,15.70
2009,05,23,10,05,15.60
2009,05,23,10,06,15.60
2009,05,23,10,07,15.50
2009,05,23,10,08,15.40
2009,05,23,10,09,15.40
2009,05,23,10,10,15.20
2009,05,23,10,11,15.00
2009,05,23,10,12,15.00
2009,05,23,10,13,15.00
2009,05,23,10,14,15.10
2009,05,23,10,15,15.10
2009,05,23,10,16,15.00
2009,05,23,10,17,15.00
2009,05,23,10,18,15.00
2009,05,23,10,19,15.00
2009,05,23,10,20,15.00
2009,05,23,10,21,15.00
2009,05,23,10,22,15.10
2009,05,23,10,23,15.30
2009,05,23,10,24,15.30
2009,05,23,10,25,15.20
2009,05,23,10,26,15.10
2009,05,23,10,27,15.00
2009,05,23,10,28,15.00
2009,05,23,10,29,15.00
2009,05,23,10,30,15.00
2009,05,23,10,31,15.00
2009,05,23,10,32,15.00
2009,05,23,10,33,15.00
2009,05,23,10,34,15.00
2009,05,23,10,35,15.00
2009,05,23,10,36,15.00
2009,05,23,10,37,15.00
2009,05,23,10,38,15.00
2009,05,23,10,39,15.20
2009,05,23,10,40,15.30
2009,05,23,10,41,15.40
2009,05,23,10,42,15.30
2009,05,23,10,43,15.30
2009,05,23,10,44,15.30
2009,05,23,10,45,15.30
2009,05,23,10,46,15.30
2009,05,23,10,47,15.30
2009,05,23,10,48,15.30
2009,05,23,10,49,15.40
2009,05,23,10,50,15.30
2009,05,23,10,51,15.20
2009,05,23,10,52,15.10
2009,05,23,10,53,15.20
2009,05,23,10,54,15.10
2009,05,23,10,55,15.10
2009,05,23,10,56,15.20
2009,05,23,10,57,15.20
2009,05,23,10,58,15.30
2009,05,23,10,59,15.60
2009,05,23,11,00,15.70
2009,05,23,11,01,15.90
2009,05,23,11,02,16.00
2009,05,23,11,03,15.90
2009,05,23,11,04,15.90
2009,05,23,11,05,15.90
2009,05,23,11,06,15.80
2009,05,23,11,07,15.80
2009,05,23,11,08,15.90
2009,05,23,11,09,15.90
2009,05,23,11,10,15.80
2009,05,23,11,11,15.90
2009,05,23,11,12,16.00
2009,05,23,11,13,16.20
2009,05,23,11,14,16.30
2009,05,23,11,15,16.40
2009,05,23,11,16,16.60
2009,05,23,11,17,16.70
2009,05,23,11,18,16.60
2009,05,23,11,19,16.50
2009,05,23,11,20,16.60
2009,05,23,11,21,16.80
2009,05,23,11,22,16.80
2009,05,23,11,23,16.70
2009,05,23,11,24,16.70
2009,05,23,11,25,16.60
2009,05,23,11,26,16.70
2009,05,23,11,27,16.80
2009,05,23,11,28,16.80
2009,05,23,11,29,16.90
2009,05,23,11,30,17.00
2009,05,23,11,31,17.00
2009,05,23,11,32,17.00
2009,05,23,11,33,17.00
2009,05,23,11,34,17.00
2009,05,23,11,35,17.10
2009,05,23,11,36,17.20
2009,05,23,11,37,17.10
2009,05,23,11,38,17.10
2009,05,23,11,39,17.00
2009,05,23,11,40,17.00
2009,05,23,11,41,16.90
2009,05,23,11,42,17.00
2009,05,23,11,43,16.90
2009,05,23,11,44,16.90
2009,05,23,11,45,17.00
2009,05,23,11,46,17.10
2009,05,23,11,47,17.20
2009,05,23,11,48,17.30
2009,05,23,11,49,17.30
2009,05,23,11,50,17.20
2009,05,23,11,51,17.30
2009,05,23,11,52,17.10
2009,05,23,11,53,17.00
2009,05,23,11,54,16.90
2009,05,23,11,55,16.90
2009,05,23,11,56,17.00
2009,05,23,11,57,17.00
2009,05,23,11,58,17.00
2009,05,23,11,59,16.90
2009,05,23,12,00,16.90
2009,05,23,12,01,16.80
2009,05,23,12,02,16.70
2009,05,23,12,03,16.70
2009,05,23,12,04,16.80
2009,05,23,12,05,16.90
2009,05,23,12,06,17.00
2009,05,23,12,07,17.00
2009,05,23,12,08,17.00
2009,05,23,12,09,16.90
2009,05,23,12,10,16.90
2009,05,23,12,11,17.00
2009,05,23,12,12,16.90
2009,05,23,12,13,16.90
2009,05,23,12,14,16.90
2009,05,23,12,15,17.00
2009,05,23,12,16,17.00
2009,05,23,12,17,17.10
2009,05,23,12,18,17.10
2009,05,23,12,19,17.20
2009,05,23,12,20,17.10
2009,05,23,12,21,17.10
2009,05,23,12,22,17.00
2009,05,23,12,23,16.90
2009,05,23,12,24,16.80
2009,05,23,12,25,16.80
2009,05,23,12,26,16.90
2009,05,23,12,27,17.00
2009,05,23,12,28,17.10
2009,05,23,12,29,17.20
2009,05,23,12,30,17.40
2009,05,23,12,31,17.50
2009,05,23,12,32,17.60
2009,05,23,12,33,17.50
2009,05,23,12,34,17.40
2009,05,23,12,35,17.40
2009,05,23,12,36,17.50
2009,05,23,12,37,17.70
2009,05,23,12,38,17.80
2009,05,23,12,39,17.80
2009,05,23,12,40,17.60
2009,05,23,12,41,17.40
2009,05,23,12,42,17.30
2009,05,23,12,43,17.30
2009,05,23,12,44,17.40
2009,05,23,12,45,17.40
2009,05,23,12,46,17.40
2009,05,23,12,47,17.30
2009,05,23,12,48,17.30
2009,05,23,12,49,17.30
2009,05,23,12,50,17.30
2009,05,23,12,51,17.20
2009,05,23,12,52,17.20
2009,05,23,12,53,17.20
2009,05,23,12,54,17.30
2009,05,23,12,55,17.30
2009,05,23,12,56,17.40
2009,05,23,12,57,17.60
2009,05,23,12,58,17.60
2009,05,23,12,59,17.50
2009,05,23,13,00,17.40
2009,05,23,13,01,17.40
2009,05,23,13,02,17.40
2009,05,23,13,03,17.50
2009,05,23,13,04,17.60
2009,05,23,13,05,17.80
2009,05,23,13,06,17.90
2009,05,23,13,07,18.00
2009,05,23,13,08,18.00
2009,05,23,13,09,17.80
2009,05,23,13,10,17.80
2009,05,23,13,11,17.80
2009,05,23,13,12,17.70
2009,05,23,13,13,17.60
2009,05,23,13,14,17.50
2009,05,23,13,15,17.40
2009,05,23,13,16,17.50
2009,05,23,13,17,17.70
2009,05,23,13,18,17.90
2009,05,23,13,19,17.80
2009,05,23,13,20,17.70
2009,05,23,13,21,17.40
2009,05,23,13,22,17.20
2009,05,23,13,23,17.10
2009,05,23,13,24,17.10
2009,05,23,13,25,17.20
2009,05,23,13,26,17.30
2009,05,23,13,27,17.20
2009,05,23,13,28,17.10
2009,05,23,13,29,16.90
2009,05,23,13,30,16.70
2009,05,23,13,31,16.70
2009,05,23,13,32,16.50
2009,05,23,13,33,16.50
2009,05,23,13,34,16.50
2009,05,23,13,35,16.50
2009,05,23,13,36,16.60
2009,05,23,13,37,16.60
2009,05,23,13,38,16.60
2009,05,23,13,39,16.80
2009,05,23,13,40,16.80
2009,05,23,13,41,16.80
2009,05,23,13,42,16.90
2009,05,23,13,43,16.80
2009,05,23,13,44,16.80
2009,05,23,13,45,16.70
2009,05,23,13,46,16.70
2009,05,23,13,47,16.60
2009,05,23,13,48,16.60
2009,05,23,13,49,16.60
2009,05,23,13,50,16.70
2009,05,23,13,51,16.80
2009,05,23,13,52,16.80
2009,05,23,13,53,16.90
2009,05,23,13,54,17.00
2009,05,23,13,55,17.00
2009,05,23,13,56,17.00
2009,05,23,13,57,17.00
2009,05,23,13,58,17.00
2009,05,23,13,59,17.00
2009,05,23,14,00,17.00
2009,05,23,14,01,17.00
2009,05,23,14,02,17.00
2009,05,23,14,03,17.00
2009,05,23,14,04,17.00
2009,05,23,14,05,16.90
2009,05,23,14,06,16.80
2009,05,23,14,07,16.70
2009,05,23,14,08,16.80
2009,05,23,14,09,17.00
2009,05,23,14,10,17.10
2009,05,23,14,11,17.30
2009,05,23,14,12,17.40
2009,05,23,14,13,17.40
2009,05,23,14,14,17.40
2009,05,23,14,15,17.30
2009,05,23,14,16,17.20
2009,05,23,14,17,17.20
2009,05,23,14,18,17.20
2009,05,23,14,19,17.30
2009,05,23,14,20,17.40
2009,05,23,14,21,17.40
2009,05,23,14,22,17.60
2009,05,23,14,23,17.70
2009,05,23,14,24,17.70
2009,05,23,14,25,17.70
2009,05,23,14,26,17.80
2009,05,23,14,27,17.90
2009,05,23,14,28,18.00
2009,05,23,14,29,18.00
2009,05,23,14,30,18.00
2009,05,23,14,31,18.00
2009,05,23,14,32,17.90
2009,05,23,14,33,17.80
2009,05,23,14,34,17.80
2009,05,23,14,35,17.80
2009,05,23,14,36,18.00
2009,05,23,14,37,18.20
2009,05,23,14,38,18.30
2009,05,23,14,39,18.30
2009,05,23,14,40,18.40
2009,05,23,14,41,18.40
2009,05,23,14,42,18.50
2009,05,23,14,43,18.60
2009,05,23,14,44,18.60
2009,05,23,14,45,18.60
2009,05,23,14,46,18.60
2009,05,23,14,47,18.60
2009,05,23,14,48,18.60
2009,05,23,14,49,18.70
2009,05,23,14,50,18.80
2009,05,23,14,51,18.80
2009,05,23,14,52,18.80
2009,05,23,14,53,18.80
2009,05,23,14,54,18.80
2009,05,23,14,55,18.70
2009,05,23,14,56,18.70
2009,05,23,14,57,18.60
2009,05,23,14,58,18.60
2009,05,23,14,59,18.50
2009,05,23,15,00,18.50
2009,05,23,15,01,18.50
2009,05,23,15,02,18.60
2009,05,23,15,03,18.70
2009,05,23,15,04,18.70
2009,05,23,15,05,18.80
2009,05,23,15,06,19.00
2009,05,23,15,07,19.00
2009,05,23,15,08,19.00
2009,05,23,15,09,19.00
2009,05,23,15,10,18.90
2009,05,23,15,11,18.90
2009,05,23,15,12,18.90
2009,05,23,15,13,18.90
2009,05,23,15,14,18.80
2009,05,23,15,15,18.90
2009,05,23,15,16,18.90
2009,05,23,15,17,18.70
2009,05,23,15,18,18.60
2009,05,23,15,19,18.70
2009,05,23,15,20,18.70
2009,05,23,15,21,18.70
2009,05,23,15,22,18.80
2009,05,23,15,23,18.70
2009,05,23,15,24,18.70
2009,05,23,15,25,18.80
2009,05,23,15,26,18.80
2009,05,23,15,27,18.80
2009,05,23,15,28,18.70
2009,05,23,15,29,18.70
2009,05,23,15,30,18.60
2009,05,23,15,31,18.50
2009,05,23,15,32,18.40
2009,05,23,15,33,18.50
2009,05,23,15,34,18.70
2009,05,23,15,35,18.90
2009,05,23,15,36,18.90
2009,05,23,15,37,19.00
2009,05,23,15,38,19.10
2009,05,23,15,39,19.30
2009,05,23,15,40,19.40
2009,05,23,15,41,19.30
2009,05,23,15,42,19.40
2009,05,23,15,43,19.50
2009,05,23,15,44,19.60
2009,05,23,15,45,19.80
2009,05,23,15,46,19.90
2009,05,23,15,47,19.90
2009,05,23,15,48,19.90
2009,05,23,15,49,19.80
2009,05,23,15,50,19.80
2009,05,23,15,51,19.80
2009,05,23,15,52,19.80
2009,05,23,15,53,19.80
2009,05,23,15,54,19.90
2009,05,23,15,55,20.00
2009,05,23,15,56,20.10
2009,05,23,15,57,20.20
2009,05,23,15,58,20.20
2009,05,23,15,59,20.20
2009,05,23,16,00,20.20
2009,05,23,16,01,20.20
2009,05,23,16,02,20.30
2009,05,23,16,03,20.30
2009,05,23,16,04,20.20
2009,05,23,16,05,20.10
2009,05,23,16,06,20.20
2009,05,23,16,07,20.40
2009,05,23,16,08,20.50
2009,05,23,16,09,20.50
2009,05,23,16,10,20.50
2009,05,23,16,11,20.60
2009,05,23,16,12,20.70
2009,05,23,16,13,20.70
2009,05,23,16,14,20.70
2009,05,23,16,15,20.70
2009,05,23,16,16,20.80
2009,05,23,16,17,20.80
2009,05,23,16,18,21.00
2009,05,23,16,19,21.10
2009,05,23,16,20,21.10
2009,05,23,16,21,21.20
2009,05,23,16,22,21.40
2009,05,23,16,23,21.50
2009,05,23,16,24,21.70
2009,05,23,16,25,21.80
2009,05,23,16,26,21.70
2009,05,23,16,27,21.50
2009,05,23,16,28,21.40
2009,05,23,16,29,21.30
2009,05,23,16,30,21.20
2009,05,23,16,31,21.20
2009,05,23,16,32,21.10
2009,05,23,16,33,21.00
2009,05,23,16,34,21.00
2009,05,23,16,35,20.90
2009,05,23,16,36,20.80
2009,05,23,16,37,20.90
2009,05,23,16,38,21.00
2009,05,23,16,39,21.10
2009,05,23,16,40,21.10
2009,05,23,16,41,21.10
2009,05,23,16,42,21.00
2009,05,23,16,43,21.10
2009,05,23,16,44,21.20
2009,05,23,16,45,21.40
2009,05,23,16,46,21.40
2009,05,23,16,47,21.40
2009,05,23,16,48,21.50
2009,05,23,16,49,21.50
2009,05,23,16,50,21.50
2009,05,23,16,51,21.30
2009,05,23,16,52,21.30
2009,05,23,16,53,21.30
2009,05,23,16,54,21.40
2009,05,23,16,55,21.40
2009,05,23,16,56,21.50
2009,05,23,16,57,21.40
2009,05,23,16,58,21.50
2009,05,23,16,59,21.50
2009,05,23,17,00,21.60
2009,05,23,17,01,21.70
2009,05,23,17,02,21.80
2009,05,23,17,03,22.00
2009,05,23,17,04,22.00
2009,05,23,17,05,21.80
2009,05,23,17,06,21.80
2009,05,23,17,07,21.80
2009,05,23,17,08,21.80
2009,05,23,17,09,21.80
2009,05,23,17,10,21.80
2009,05,23,17,11,21.90
2009,05,23,17,12,21.90
2009,05,23,17,13,21.80
2009,05,23,17,14,21.80
2009,05,23,17,15,21.70
2009,05,23,17,16,21.60
2009,05,23,17,17,21.60
2009,05,23,17,18,21.50
2009,05,23,17,19,21.60
2009,05,23,17,20,21.60
2009,05,23,17,21,21.60
2009,05,23,17,22,21.60
2009,05,23,17,23,21.60
2009,05,23,17,24,21.60
2009,05,23,17,25,21.60
2009,05,23,17,26,21.70
2009,05,23,17,27,21.60
2009,05,23,17,28,21.60
2009,05,23,17,29,21.50
2009,05,23,17,30,21.50
2009,05,23,17,31,21.50
2009,05,23,17,32,21.60
2009,05,23,17,33,21.60
2009,05,23,17,34,21.70
2009,05,23,17,35,21.60
2009,05,23,17,36,21.60
2009,05,23,17,37,21.50
2009,05,23,17,38,21.50
2009,05,23,17,39,21.50